Tracking 30995 objects as of 5-Jul-2025
HD Live streaming from Space Station
objects crossing your sky now

LEASAT 4 PKM

Track LEASAT 4 PKM now!
10-day predictions


NORAD ID: 16001
Int'l Code: 1985-076F
Perigee: 380.4 km
Apogee: 13,955.1 km
Inclination: 27.4 °
Period: 261.3 minutes
Semi major axis: 13538 km
RCS: 3.8918 m2 (large)
Launch date: August 27, 1985
Source: United States (US)
Launch site: AIR FORCE EASTERN TEST RANGE (AFETR)

Note: This is a ROCKET BODY
Your satellite tracking list
Your tracking list is empty




NASA's NSSDC Master Catalog

Two Line Element Set (TLE):
1 16001U 85076F   25186.03082095  .00002746  00000-0  11726-2 0  9991
2 16001  27.3817 156.5259 5013280 349.2567   3.0610  5.51106502773020
Source of the keplerian elements: AFSPC